| time (UTC) | temp F | wind direction | speed knots | gust knots | rain 1hr in | rain 24hr in | rain mn in | humidity % | barometer mb |
| 20260906011542 | 82 | 213 | 0.9 | 3.5 | 0.00 | 0.00 | 0.00 | 85 | 1011.7 |
| 20260906011021 | 82 | 232 | 0.0 | 3.5 | 0.00 | 0.00 | 0.00 | 85 | 1011.7 |
| 20260906010520 | 82 | 231 | 1.7 | 3.5 | 0.00 | 0.00 | 0.00 | 84 | 1011.7 |
| 20260906010043 | 82 | 206 | 1.7 | 3.5 | 0.00 | 0.00 | 0.00 | 84 | 1011.6 |
| 20260906005524 | 82 | 202 | 0.9 | 3.5 | 0.00 | 0.00 | 0.00 | 84 | 1011.7 |
| 20260906005020 | 82 | 228 | 0.9 | 3.5 | 0.00 | 0.00 | 0.00 | 85 | 1011.7 |
| 20260906004542 | 82 | 216 | 0.9 | 3.5 | 0.00 | 0.00 | 0.00 | 85 | 1011.8 |
| 20260906004025 | 82 | 0 | 1.7 | 3.5 | 0.00 | 0.00 | 0.00 | 85 | 1011.8 |
| 20260906003527 | 82 | 0 | 0.9 | 2.6 | 0.00 | 0.00 | 0.00 | 84 | 1011.6 |
| 20260906003045 | 82 | 217 | 0.9 | 2.6 | 0.00 | 0.00 | 0.00 | 85 | 1011.6 |
| 20260906002525 | 82 | 225 | 0.0 | 1.7 | 0.00 | 0.00 | 0.00 | 85 | 1011.6 |
| 20260906002020 | 83 | 0 | 0.0 | 2.6 | 0.00 | 0.00 | 0.00 | 84 | 1011.7 |
| 20260906001542 | 83 | 0 | 0.0 | 2.6 | 0.00 | 0.00 | 0.00 | 84 | 1011.6 |
| 20260906001018 | 83 | 236 | 0.0 | 3.5 | 0.00 | 0.00 | 0.00 | 83 | 1011.6 |
| 20260906000518 | 83 | 0 | 0.9 | 3.5 | 0.00 | 0.00 | 0.00 | 83 | 1011.7 |
| 20260906000046 | 83 | 0 | 0.0 | 4.3 | 0.00 | 0.00 | 0.00 | 83 | 1011.8 |
| 20260905235520 | 84 | 0 | 0.0 | 4.3 | 0.00 | 0.00 | 0.00 | 83 | 1011.6 |
| 20260905235018 | 84 | 0 | 0.0 | 4.3 | 0.00 | 0.00 | 0.00 | 83 | 1011.6 |
| 20260905234540 | 84 | 0 | 0.0 | 5.2 | 0.00 | 0.00 | 0.00 | 83 | 1011.6 |
| 20260905234020 | 84 | 224 | 0.9 | 5.2 | 0.00 | 0.00 | 0.00 | 82 | 1011.6 |
| 20260905233524 | 84 | 214 | 0.9 | 3.5 | 0.00 | 0.00 | 0.00 | 82 | 1011.5 |
| 20260905233043 | 84 | 223 | 0.0 | 3.5 | 0.00 | 0.00 | 0.00 | 82 | 1011.5 |
| 20260905232521 | 85 | 0 | 0.0 | 1.7 | 0.00 | 0.00 | 0.00 | 82 | 1011.5 |
| 20260905232019 | 85 | 0 | 0.0 | 1.7 | 0.00 | 0.00 | 0.00 | 82 | 1011.6 |
| 20260905231541 | 85 | 0 | 0.0 | 1.7 | 0.00 | 0.00 | 0.00 | 81 | 1011.5 |
| 20260905231020 | 85 | 0 | 0.0 | 0.9 | 0.00 | 0.00 | 0.00 | 82 | 1011.5 |
| 20260905230520 | 85 | 0 | 0.0 | 2.6 | 0.00 | 0.00 | 0.00 | 81 | 1011.5 |
| 20260905230040 | 85 | 0 | 0.0 | 4.3 | 0.00 | 0.00 | 0.00 | 81 | 1011.5 |
| 20260905225524 | 85 | 0 | 0.0 | 4.3 | 0.00 | 0.00 | 0.00 | 80 | 1011.5 |
| 20260905225019 | 86 | 178 | 1.7 | 4.3 | 0.00 | 0.00 | 0.00 | 80 | 1011.5 |
| 20260905224544 | 86 | 0 | 0.0 | 5.2 | 0.00 | 0.00 | 0.00 | 80 | 1011.5 |
| 20260905224019 | 86 | 0 | 0.9 | 5.2 | 0.00 | 0.00 | 0.00 | 80 | 1011.4 |
| 20260905223524 | 86 | 251 | 1.7 | 5.2 | 0.00 | 0.00 | 0.00 | 78 | 1011.4 |
| 20260905223043 | 87 | 191 | 0.0 | 6.1 | 0.00 | 0.00 | 0.00 | 79 | 1011.5 |
| 20260905222518 | 87 | 223 | 1.7 | 6.1 | 0.00 | 0.00 | 0.00 | 77 | 1011.8 |
| 20260905222017 | 88 | 226 | 1.7 | 4.3 | 0.00 | 0.00 | 0.00 | 76 | 1011.7 |
| 20260905221544 | 88 | 0 | 0.0 | 4.3 | 0.00 | 0.00 | 0.00 | 77 | 1011.7 |
| 20260905221021 | 88 | 0 | 0.9 | 5.2 | 0.00 | 0.00 | 0.00 | 76 | 1011.8 |
| 20260905220526 | 88 | 202 | 1.7 | 5.2 | 0.00 | 0.00 | 0.00 | 75 | 1011.8 |
| 20260905220044 | 89 | 235 | 0.9 | 5.2 | 0.00 | 0.00 | 0.00 | 74 | 1011.7 |
| 20260905215521 | 88 | 0 | 0.9 | 5.2 | 0.00 | 0.00 | 0.00 | 76 | 1011.7 |
| 20260905215022 | 88 | 0 | 0.9 | 5.2 | 0.00 | 0.00 | 0.00 | 77 | 1011.8 |
| 20260905214545 | 88 | 240 | 1.7 | 5.2 | 0.00 | 0.00 | 0.00 | 75 | 1012.0 |
| 20260905214018 | 88 | 209 | 0.0 | 4.3 | 0.00 | 0.00 | 0.00 | 76 | 1012.0 |
| 20260905213520 | 88 | 236 | 0.9 | 4.3 | 0.00 | 0.00 | 0.00 | 76 | 1012.1 |
| 20260905213044 | 88 | 232 | 0.9 | 6.1 | 0.00 | 0.00 | 0.00 | 76 | 1012.0 |
| 20260905212520 | 88 | 186 | 1.7 | 6.1 | 0.00 | 0.00 | 0.00 | 77 | 1012.1 |
| 20260905212023 | 87 | 207 | 0.0 | 3.5 | 0.00 | 0.00 | 0.00 | 79 | 1012.1 |
| 20260905211540 | 87 | 123 | 0.9 | 3.5 | 0.00 | 0.00 | 0.00 | 80 | 1012.4 |
| 20260905211020 | 85 | 209 | 0.9 | 2.6 | 0.00 | 0.00 | 0.00 | 82 | 1012.4 |
| 20260905210520 | 84 | 78 | 0.9 | 2.6 | 0.00 | 0.00 | 0.00 | 83 | 1012.3 |
| 20260905210047 | 83 | 0 | 0.0 | 0.9 | 0.00 | 0.00 | 0.00 | 87 | 1012.1 |
| 20260905205526 | 83 | 0 | 0.0 | 2.6 | 0.00 | 0.00 | 0.00 | 85 | 1012.1 |
| 20260905205021 | 82 | 0 | 0.0 | 2.6 | 0.00 | 0.00 | 0.00 | 85 | 1012.1 |
| 20260905204539 | 82 | 0 | 0.0 | 3.5 | 0.00 | 0.00 | 0.00 | 85 | 1012.0 |
| 20260905204021 | 82 | 0 | 0.0 | 3.5 | 0.00 | 0.00 | 0.00 | 86 | 1012.0 |
| 20260905203518 | 82 | 0 | 0.0 | 3.5 | 0.00 | 0.00 | 0.00 | 85 | 1012.0 |
| 20260905203041 | 83 | 138 | 0.9 | 3.5 | 0.00 | 0.00 | 0.00 | 85 | 1012.2 |
| 20260905202521 | 83 | 0 | 0.0 | 1.7 | 0.00 | 0.00 | 0.00 | 85 | 1012.1 |
| 20260905202018 | 83 | 0 | 0.0 | 3.5 | 0.00 | 0.00 | 0.00 | 86 | 1012.1 |
| 20260905201541 | 82 | 0 | 0.0 | 7.8 | 0.00 | 0.00 | 0.00 | 87 | 1012.2 |
| 20260905201017 | 83 | 158 | 1.7 | 7.8 | 0.00 | 0.00 | 0.00 | 85 | 1012.6 |
| 20260905200521 | 84 | 78 | 1.7 | 7.8 | 0.00 | 0.00 | 0.00 | 83 | 1012.8 |
| 20260905200044 | 85 | 124 | 1.7 | 6.1 | 0.00 | 0.00 | 0.00 | 81 | 1012.6 |
| 20260905195518 | 85 | 0 | 0.9 | 3.5 | 0.00 | 0.00 | 0.00 | 82 | 1012.6 |
| 20260905195019 | 85 | 0 | 0.0 | 3.5 | 0.00 | 0.00 | 0.00 | 81 | 1012.7 |
| 20260905194541 | 85 | 0 | 0.9 | 3.5 | 0.00 | 0.00 | 0.00 | 81 | 1012.7 |
| 20260905194020 | 85 | 252 | 0.0 | 2.6 | 0.00 | 0.00 | 0.00 | 79 | 1012.8 |
| 20260905193520 | 85 | 0 | 0.0 | 3.5 | 0.00 | 0.00 | 0.00 | 78 | 1012.9 |
| 20260905193040 | 86 | 0 | 0.9 | 3.5 | 0.00 | 0.00 | 0.00 | 76 | 1013.0 |
| 20260905192523 | 87 | 82 | 1.7 | 6.1 | 0.00 | 0.00 | 0.00 | 75 | 1013.0 |
| 20260905192024 | 88 | 0 | 0.0 | 6.1 | 0.00 | 0.00 | 0.00 | 74 | 1013.0 |
| 20260905191541 | 88 | 38 | 2.6 | 6.1 | 0.00 | 0.00 | 0.00 | 72 | 1013.0 |
| 20260905191016 | 89 | 215 | 0.0 | 5.2 | 0.00 | 0.00 | 0.00 | 74 | 1013.0 |
| 20260905190516 | 89 | 246 | 1.7 | 5.2 | 0.00 | 0.00 | 0.00 | 73 | 1013.1 |
| 20260905190041 | 89 | 0 | 0.9 | 6.1 | 0.00 | 0.00 | 0.00 | 75 | 1013.0 |
| 20260905185516 | 89 | 192 | 0.0 | 6.1 | 0.00 | 0.00 | 0.00 | 74 | 1013.1 |
| 20260905185019 | 89 | 205 | 2.6 | 6.1 | 0.00 | 0.00 | 0.00 | 75 | 1013.1 |
| 20260905184558 | 89 | 46 | 0.9 | 3.5 | 0.00 | 0.00 | 0.00 | 71 | 1013.2 |
| 20260905184021 | 90 | 285 | 0.9 | 6.1 | 0.00 | 0.00 | 0.00 | 71 | 1013.3 |
| 20260905183524 | 90 | 151 | 1.7 | 6.1 | 0.00 | 0.00 | 0.00 | 76 | 1013.3 |
| 20260905183042 | 89 | 175 | 1.7 | 5.2 | 0.00 | 0.00 | 0.00 | 76 | 1013.4 |
| 20260905182517 | 89 | 233 | 0.9 | 5.2 | 0.00 | 0.00 | 0.00 | 77 | 1013.4 |
| 20260905182019 | 88 | 0 | 1.7 | 5.2 | 0.00 | 0.00 | 0.00 | 73 | 1013.4 |
| 20260905181540 | 88 | 0 | 0.9 | 4.3 | 0.00 | 0.00 | 0.00 | 79 | 1013.4 |
| 20260905181016 | 87 | 0 | 0.9 | 5.2 | 0.00 | 0.00 | 0.00 | 79 | 1013.5 |
| 20260905180516 | 87 | 215 | 1.7 | 5.2 | 0.00 | 0.00 | 0.00 | 77 | 1013.5 |
| 20260905180037 | 87 | 284 | 2.6 | 5.2 | 0.00 | 0.00 | 0.00 | 77 | 1013.7 |
| 20260905175519 | 87 | 256 | 1.7 | 4.3 | 0.00 | 0.00 | 0.00 | 76 | 1013.7 |
| 20260905175019 | 87 | 0 | 0.0 | 5.2 | 0.00 | 0.00 | 0.00 | 75 | 1013.7 |
| 20260905174543 | 87 | 286 | 1.7 | 5.2 | 0.00 | 0.00 | 0.00 | 75 | 1013.7 |
| 20260905174020 | 86 | 270 | 0.0 | 3.5 | 0.00 | 0.00 | 0.00 | 79 | 1013.7 |
| 20260905173520 | 85 | 0 | 0.0 | 0.0 | 0.00 | 0.00 | 0.00 | 81 | 1013.7 |
| 20260905173041 | 85 | 0 | 0.0 | 6.1 | 0.00 | 0.00 | 0.00 | 80 | 1013.8 |
| 20260905172518 | 85 | 0 | 0.0 | 6.1 | 0.00 | 0.00 | 0.00 | 82 | 1013.8 |
| 20260905172020 | 85 | 250 | 2.6 | 6.1 | 0.00 | 0.00 | 0.00 | 80 | 1013.9 |
| 20260905171539 | 86 | 239 | 2.6 | 6.1 | 0.00 | 0.00 | 0.00 | 76 | 1013.9 |
| 20260905171042 | 87 | 219 | 1.7 | 6.1 | 0.00 | 0.00 | 0.00 | 75 | 1013.9 |
| 20260905170519 | 87 | 241 | 2.6 | 5.2 | 0.00 | 0.00 | 0.00 | 75 | 1014.0 |
| 20260905170043 | 88 | 246 | 2.6 | 6.1 | 0.00 | 0.00 | 0.00 | 74 | 1014.1 |
| 20260905165518 | 89 | 270 | 2.6 | 6.1 | 0.00 | 0.00 | 0.00 | 74 | 1014.1 |
| 20260905165019 | 89 | 244 | 1.7 | 6.1 | 0.00 | 0.00 | 0.00 | 73 | 1014.1 |
| 20260905164543 | 89 | 119 | 0.9 | 6.1 | 0.00 | 0.00 | 0.00 | 75 | 1014.1 |
| 20260905164021 | 88 | 0 | 0.0 | 2.6 | 0.00 | 0.00 | 0.00 | 78 | 1014.1 |
| 20260905163520 | 87 | 230 | 0.0 | 1.7 | 0.00 | 0.00 | 0.00 | 75 | 1014.1 |
| 20260905163050 | 86 | 0 | 0.0 | 2.6 | 0.00 | 0.00 | 0.00 | 78 | 1014.1 |
| 20260905162520 | 85 | 0 | 0.0 | 2.6 | 0.00 | 0.00 | 0.00 | 78 | 1014.2 |
| 20260905162019 | 85 | 0 | 0.0 | 2.6 | 0.00 | 0.00 | 0.00 | 80 | 1014.2 |
| 20260905161540 | 85 | 0 | 0.9 | 2.6 | 0.00 | 0.00 | 0.00 | 79 | 1014.2 |
| 20260905161019 | 85 | 0 | 0.0 | 2.6 | 0.00 | 0.00 | 0.00 | 80 | 1014.1 |
| 20260905160520 | 85 | 76 | 0.0 | 3.5 | 0.00 | 0.00 | 0.00 | 79 | 1014.1 |
| 20260905160050 | 86 | 0 | 0.0 | 6.1 | 0.00 | 0.00 | 0.00 | 79 | 1014.2 |
| 20260905155518 | 86 | 13 | 1.7 | 6.1 | 0.00 | 0.00 | 0.00 | 78 | 1014.3 |
| 20260905155020 | 86 | 24 | 1.7 | 6.1 | 0.00 | 0.00 | 0.00 | 80 | 1014.3 |
| 20260905154548 | 86 | 46 | 1.7 | 4.3 | 0.00 | 0.00 | 0.00 | 80 | 1014.2 |
| 20260905154018 | 86 | 84 | 1.7 | 4.3 | 0.00 | 0.00 | 0.00 | 82 | 1014.3 |
| 20260905153521 | 85 | 0 | 0.0 | 2.6 | 0.00 | 0.00 | 0.00 | 82 | 1014.2 |
| 20260905153041 | 84 | 0 | 0.0 | 2.6 | 0.00 | 0.00 | 0.00 | 84 | 1014.2 |
| 20260905152518 | 84 | 257 | 0.0 | 0.9 | 0.00 | 0.00 | 0.00 | 85 | 1014.3 |
| 20260905152023 | 84 | 0 | 0.0 | 1.7 | 0.00 | 0.00 | 0.00 | 83 | 1014.3 |
| 20260905151544 | 84 | 0 | 0.0 | 3.5 | 0.00 | 0.00 | 0.00 | 83 | 1014.3 |
| 20260905151022 | 84 | 79 | 0.0 | 3.5 | 0.00 | 0.00 | 0.00 | 83 | 1014.2 |
| 20260905150519 | 85 | 48 | 0.9 | 3.5 | 0.00 | 0.00 | 0.00 | 82 | 1014.2 |
| 20260905150042 | 85 | 0 | 0.0 | 6.1 | 0.00 | 0.00 | 0.00 | 81 | 1014.3 |
| 20260905145519 | 86 | 235 | 1.7 | 6.1 | 0.00 | 0.00 | 0.00 | 81 | 1014.2 |
| 20260905145018 | 87 | 273 | 0.9 | 6.1 | 0.00 | 0.00 | 0.00 | 79 | 1014.0 |
| 20260905144549 | 87 | 0 | 0.0 | 1.7 | 0.00 | 0.00 | 0.00 | 82 | 1014.1 |
| 20260905144020 | 86 | 0 | 0.9 | 1.7 | 0.00 | 0.00 | 0.00 | 83 | 1014.2 |
| 20260905143520 | 85 | 0 | 0.0 | 1.7 | 0.00 | 0.00 | 0.00 | 86 | 1014.2 |
| 20260905143041 | 85 | 0 | 0.0 | 3.5 | 0.00 | 0.00 | 0.00 | 85 | 1014.1 |
| 20260905142525 | 84 | 0 | 0.0 | 3.5 | 0.00 | 0.00 | 0.00 | 84 | 1014.1 |
| 20260905142024 | 84 | 296 | 0.0 | 2.6 | 0.00 | 0.00 | 0.00 | 83 | 1014.2 |
| 20260905141607 | 85 | 0 | 0.0 | 2.6 | 0.00 | 0.00 | 0.00 | 84 | 1014.2 |
| 20260905141019 | 85 | 46 | 0.0 | 2.6 | 0.00 | 0.00 | 0.00 | 84 | 1014.1 |
| 20260905140519 | 85 | 0 | 0.9 | 1.7 | 0.00 | 0.00 | 0.00 | 87 | 1014.2 |
| 20260905140053 | 84 | 77 | 0.0 | 1.7 | 0.00 | 0.00 | 0.00 | 88 | 1014.1 |
| 20260905135521 | 83 | 0 | 0.0 | 1.7 | 0.00 | 0.00 | 0.00 | 90 | 1014.1 |
| 20260905135021 | 83 | 0 | 0.0 | 2.6 | 0.00 | 0.00 | 0.00 | 89 | 1014.0 |
| 20260905134551 | 83 | 77 | 0.0 | 2.6 | 0.00 | 0.00 | 0.00 | 91 | 1013.9 |
| 20260905134018 | 82 | 77 | 0.9 | 2.6 | 0.00 | 0.00 | 0.00 | 93 | 1014.0 |
| 20260905133517 | 81 | 0 | 0.9 | 2.6 | 0.00 | 0.00 | 0.00 | 94 | 1014.0 |
| 20260905133052 | 81 | 75 | 1.7 | 3.5 | 0.00 | 0.00 | 0.00 | 95 | 1013.9 |
| 20260905132520 | 80 | 71 | 0.9 | 3.5 | 0.00 | 0.00 | 0.00 | 96 | 1013.9 |
| 20260905132018 | 80 | 132 | 0.9 | 2.6 | 0.00 | 0.00 | 0.00 | 97 | 1014.0 |
| 20260905131552 | 79 | 72 | 0.9 | 2.6 | 0.00 | 0.00 | 0.00 | 97 | 1014.0 |
| 20260905131021 | 78 | 80 | 0.9 | 2.6 | 0.00 | 0.00 | 0.00 | 98 | 1014.0 |
| 20260905130519 | 78 | 0 | 0.0 | 3.5 | 0.00 | 0.00 | 0.00 | 98 | 1013.9 |
| 20260905130041 | 78 | 80 | 1.7 | 3.5 | 0.00 | 0.00 | 0.00 | 98 | 1013.9 |
| 20260905125521 | 78 | 80 | 0.9 | 2.6 | 0.00 | 0.00 | 0.00 | 98 | 1013.9 |
| 20260905125018 | 78 | 80 | 0.9 | 2.6 | 0.00 | 0.00 | 0.00 | 99 | 1013.9 |
| 20260905124540 | 77 | 40 | 0.9 | 2.6 | 0.00 | 0.00 | 0.00 | 99 | 1013.9 |
| 20260905124020 | 77 | 0 | 0.0 | 2.6 | 0.00 | 0.00 | 0.00 | 99 | 1013.8 |
| 20260905123520 | 76 | 49 | 0.0 | 1.7 | 0.00 | 0.00 | 0.00 | 99 | 1013.7 |
| 20260905123040 | 76 | 49 | 0.0 | 1.7 | 0.00 | 0.00 | 0.00 | 99 | 1013.8 |
| 20260905122521 | 76 | 0 | 0.0 | 1.7 | 0.00 | 0.00 | 0.00 | 99 | 1013.7 |
| 20260905122019 | 76 | 0 | 0.9 | 2.6 | 0.00 | 0.00 | 0.00 | 99 | 1013.8 |
| 20260905121542 | 76 | 49 | 0.9 | 2.6 | 0.00 | 0.00 | 0.00 | 99 | 1013.7 |
| 20260905121023 | 76 | 49 | 0.9 | 1.7 | 0.00 | 0.00 | 0.00 | 99 | 1013.6 |
| 20260905120524 | 76 | 0 | 0.0 | 1.7 | 0.00 | 0.00 | 0.00 | 99 | 1013.5 |
| 20260905120041 | 75 | 0 | 0.0 | 1.7 | 0.00 | 0.00 | 0.00 | 99 | 1013.4 |
| 20260905115518 | 75 | 0 | 0.0 | 0.0 | 0.00 | 0.00 | 0.00 | 99 | 1013.5 |
| 20260905115020 | 75 | 0 | 0.0 | 1.7 | 0.00 | 0.00 | 0.00 | 99 | 1013.5 |
| 20260905114610 | 75 | 0 | 0.0 | 1.7 | 0.00 | 0.00 | 0.00 | 99 | 1013.5 |
| 20260905114017 | 75 | 49 | 0.9 | 1.7 | 0.00 | 0.00 | 0.00 | 99 | 1013.3 |
| 20260905113520 | 75 | 49 | 0.9 | 1.7 | 0.00 | 0.00 | 0.00 | 99 | 1013.3 |
| 20260905113044 | 75 | 49 | 0.0 | 1.7 | 0.00 | 0.00 | 0.00 | 99 | 1013.3 |
| 20260905112519 | 75 | 49 | 0.0 | 1.7 | 0.00 | 0.00 | 0.00 | 99 | 1013.2 |
| 20260905112020 | 75 | 49 | 0.0 | 1.7 | 0.00 | 0.00 | 0.00 | 99 | 1013.2 |
| 20260905111549 | 75 | 49 | 0.0 | 1.7 | 0.00 | 0.00 | 0.00 | 99 | 1013.2 |
| 20260905111019 | 75 | 49 | 0.0 | 1.7 | 0.00 | 0.00 | 0.00 | 99 | 1013.2 |
| 20260905110520 | 75 | 0 | 0.0 | 1.7 | 0.00 | 0.00 | 0.00 | 99 | 1013.2 |
| 20260905110040 | 75 | 0 | 0.0 | 1.7 | 0.00 | 0.00 | 0.00 | 99 | 1013.0 |
| 20260905105520 | 75 | 49 | 0.0 | 2.6 | 0.00 | 0.00 | 0.00 | 99 | 1013.1 |
| 20260905105017 | 75 | 49 | 0.0 | 2.6 | 0.00 | 0.00 | 0.00 | 99 | 1013.1 |
| 20260905104541 | 75 | 49 | 0.0 | 0.9 | 0.00 | 0.00 | 0.00 | 99 | 1013.1 |
| 20260905104020 | 75 | 0 | 0.0 | 1.7 | 0.00 | 0.00 | 0.00 | 99 | 1013.1 |
| 20260905103526 | 75 | 0 | 0.0 | 1.7 | 0.00 | 0.00 | 0.00 | 99 | 1013.1 |
| 20260905103040 | 75 | 0 | 0.0 | 1.7 | 0.00 | 0.00 | 0.00 | 99 | 1013.0 |
| 20260905102518 | 75 | 0 | 0.0 | 1.7 | 0.00 | 0.00 | 0.00 | 99 | 1013.1 |
| 20260905102019 | 75 | 49 | 0.0 | 1.7 | 0.00 | 0.00 | 0.00 | 99 | 1013.0 |
| 20260905101541 | 75 | 0 | 0.0 | 1.7 | 0.00 | 0.00 | 0.00 | 99 | 1013.1 |
| 20260905101019 | 75 | 49 | 0.9 | 1.7 | 0.00 | 0.00 | 0.00 | 99 | 1013.1 |
| 20260905100520 | 75 | 49 | 0.9 | 1.7 | 0.00 | 0.00 | 0.00 | 99 | 1013.0 |
| 20260905095517 | 75 | 0 | 0.0 | 1.7 | 0.00 | 0.00 | 0.00 | 99 | 1013.1 |
| 20260905095017 | 75 | 49 | 0.0 | 0.9 | 0.00 | 0.00 | 0.00 | 99 | 1013.0 |
| 20260905094542 | 75 | 0 | 0.0 | 0.9 | 0.00 | 0.00 | 0.00 | 99 | 1013.0 |
| 20260905094017 | 75 | 0 | 0.0 | 0.9 | 0.00 | 0.00 | 0.00 | 99 | 1013.1 |
| 20260905093520 | 75 | 0 | 0.0 | 0.0 | 0.00 | 0.00 | 0.00 | 99 | 1013.0 |
| 20260905093044 | 75 | 0 | 0.0 | 0.0 | 0.00 | 0.00 | 0.00 | 99 | 1012.9 |
| 20260905092523 | 75 | 0 | 0.0 | 0.0 | 0.00 | 0.00 | 0.00 | 98 | 1012.9 |
| 20260905092022 | 75 | 0 | 0.0 | 0.0 | 0.00 | 0.00 | 0.00 | 99 | 1013.0 |
| 20260905091555 | 75 | 0 | 0.0 | 0.0 | 0.00 | 0.00 | 0.00 | 99 | 1012.9 |
| 20260905091019 | 75 | 0 | 0.0 | 0.0 | 0.00 | 0.00 | 0.00 | 98 | 1012.9 |
| 20260905090518 | 75 | 0 | 0.0 | 0.0 | 0.00 | 0.00 | 0.00 | 98 | 1012.9 |
| 20260905090040 | 75 | 0 | 0.0 | 0.0 | 0.00 | 0.00 | 0.00 | 98 | 1012.9 |
| 20260905085519 | 75 | 0 | 0.0 | 0.0 | 0.00 | 0.01 | 0.00 | 98 | 1013.0 |
| 20260905085018 | 75 | 0 | 0.0 | 0.0 | 0.00 | 0.01 | 0.00 | 98 | 1013.0 |
| 20260905084538 | 75 | 0 | 0.0 | 0.0 | 0.00 | 0.01 | 0.00 | 98 | 1013.0 |
| 20260905084017 | 75 | 0 | 0.0 | 0.0 | 0.00 | 0.01 | 0.00 | 98 | 1012.9 |
| 20260905083524 | 75 | 0 | 0.0 | 0.0 | 0.00 | 0.01 | 0.00 | 98 | 1012.8 |
| 20260905083038 | 75 | 0 | 0.0 | 0.0 | 0.00 | 0.01 | 0.00 | 98 | 1012.8 |
| 20260905082519 | 75 | 0 | 0.0 | 0.0 | 0.00 | 0.01 | 0.00 | 98 | 1012.8 |
| 20260905082020 | 75 | 0 | 0.0 | 0.0 | 0.00 | 0.01 | 0.00 | 98 | 1012.7 |
| 20260905081542 | 75 | 0 | 0.0 | 0.0 | 0.00 | 0.01 | 0.00 | 98 | 1012.7 |
| 20260905081018 | 75 | 0 | 0.0 | 0.0 | 0.00 | 0.01 | 0.00 | 98 | 1012.7 |
| 20260905080519 | 75 | 0 | 0.0 | 0.9 | 0.00 | 0.01 | 0.00 | 98 | 1012.7 |
| 20260905080042 | 75 | 0 | 0.0 | 1.7 | 0.00 | 0.01 | 0.00 | 98 | 1012.8 |
| 20260905075520 | 75 | 0 | 0.0 | 2.6 | 0.00 | 0.01 | 0.00 | 98 | 1012.8 |
| 20260905075020 | 75 | 49 | 0.0 | 2.6 | 0.00 | 0.01 | 0.00 | 98 | 1012.9 |
| 20260905074553 | 75 | 74 | 0.0 | 1.7 | 0.00 | 0.01 | 0.00 | 98 | 1012.9 |
| 20260905074020 | 75 | 0 | 0.0 | 2.6 | 0.00 | 0.01 | 0.00 | 98 | 1012.9 |
| 20260905073519 | 75 | 30 | 0.9 | 2.6 | 0.00 | 0.01 | 0.00 | 98 | 1012.8 |
| 20260905073058 | 75 | 30 | 0.0 | 1.7 | 0.00 | 0.01 | 0.00 | 98 | 1012.9 |
| 20260905072520 | 75 | 0 | 0.0 | 0.9 | 0.00 | 0.01 | 0.00 | 98 | 1012.9 |
| 20260905072019 | 75 | 0 | 0.0 | 0.9 | 0.00 | 0.01 | 0.00 | 98 | 1012.8 |
| 20260905071542 | 75 | 0 | 0.0 | 0.9 | 0.00 | 0.01 | 0.00 | 98 | 1012.8 |
| 20260905071018 | 75 | 0 | 0.0 | 0.0 | 0.00 | 0.01 | 0.00 | 98 | 1012.8 |
| 20260905070519 | 75 | 0 | 0.0 | 0.0 | 0.00 | 0.01 | 0.00 | 98 | 1012.7 |
| 20260905070041 | 75 | 0 | 0.0 | 0.0 | 0.00 | 0.01 | 0.00 | 98 | 1012.8 |
| 20260905065517 | 75 | 0 | 0.0 | 0.9 | 0.00 | 0.01 | 0.00 | 98 | 1012.8 |
| 20260905065022 | 76 | 0 | 0.0 | 1.7 | 0.00 | 0.01 | 0.00 | 98 | 1012.7 |
| 20260905064554 | 76 | 0 | 0.0 | 1.7 | 0.00 | 0.01 | 0.00 | 98 | 1012.6 |
| 20260905064016 | 76 | 0 | 0.0 | 0.0 | 0.00 | 0.01 | 0.00 | 98 | 1012.6 |
| 20260905063517 | 76 | 0 | 0.0 | 0.0 | 0.00 | 0.01 | 0.00 | 98 | 1012.6 |
| 20260905063042 | 76 | 0 | 0.0 | 0.0 | 0.00 | 0.01 | 0.00 | 98 | 1012.5 |
| 20260905062524 | 76 | 0 | 0.0 | 0.0 | 0.00 | 0.01 | 0.00 | 98 | 1012.5 |
| 20260905062023 | 76 | 0 | 0.0 | 0.0 | 0.00 | 0.01 | 0.00 | 97 | 1012.6 |
| 20260905061538 | 76 | 0 | 0.0 | 0.0 | 0.00 | 0.01 | 0.00 | 98 | 1012.5 |
| 20260905061020 | 76 | 0 | 0.0 | 0.0 | 0.00 | 0.01 | 0.00 | 97 | 1012.7 |
| 20260905060518 | 76 | 0 | 0.0 | 0.0 | 0.00 | 0.01 | 0.00 | 97 | 1012.8 |
| 20260905060047 | 76 | 0 | 0.0 | 0.0 | 0.00 | 0.01 | 0.00 | 98 | 1012.7 |
| 20260905055520 | 76 | 0 | 0.0 | 0.0 | 0.00 | 0.09 | 0.00 | 98 | 1012.8 |
| 20260905055017 | 76 | 0 | 0.0 | 0.0 | 0.00 | 0.09 | 0.00 | 98 | 1012.7 |
| 20260905054543 | 76 | 0 | 0.0 | 0.0 | 0.00 | 0.09 | 0.00 | 97 | 1012.7 |
| 20260905054020 | 76 | 0 | 0.0 | 0.0 | 0.00 | 0.09 | 0.00 | 97 | 1012.8 |
| 20260905053519 | 76 | 0 | 0.0 | 0.0 | 0.00 | 0.09 | 0.00 | 97 | 1012.8 |
| 20260905053042 | 76 | 0 | 0.0 | 0.0 | 0.00 | 0.09 | 0.00 | 97 | 1012.9 |
| 20260905052520 | 76 | 0 | 0.0 | 0.0 | 0.00 | 0.09 | 0.00 | 97 | 1013.0 |
| 20260905052019 | 76 | 0 | 0.0 | 0.0 | 0.00 | 0.09 | 0.00 | 97 | 1012.9 |
| 20260905051554 | 76 | 0 | 0.0 | 0.0 | 0.00 | 0.09 | 0.00 | 97 | 1013.0 |
| 20260905051018 | 76 | 0 | 0.0 | 0.0 | 0.00 | 0.09 | 0.00 | 97 | 1013.0 |
| 20260905050521 | 76 | 0 | 0.0 | 0.0 | 0.00 | 0.09 | 0.00 | 97 | 1013.1 |
| 20260905050043 | 76 | 0 | 0.0 | 0.0 | 0.00 | 0.09 | 0.00 | 97 | 1013.3 |
| 20260905045523 | 76 | 0 | 0.0 | 0.9 | 0.00 | 0.09 | 0.09 | 97 | 1013.3 |
| 20260905045018 | 76 | 0 | 0.0 | 1.7 | 0.00 | 0.09 | 0.09 | 97 | 1013.3 |
| 20260905044559 | 76 | 30 | 0.0 | 2.6 | 0.00 | 0.09 | 0.09 | 97 | 1013.4 |
| 20260905044018 | 76 | 30 | 0.9 | 2.6 | 0.00 | 0.09 | 0.09 | 97 | 1013.5 |
| 20260905043523 | 76 | 30 | 0.0 | 2.6 | 0.00 | 0.09 | 0.09 | 97 | 1013.5 |
| 20260905043039 | 76 | 0 | 0.0 | 2.6 | 0.00 | 0.09 | 0.09 | 97 | 1013.7 |
| 20260905042518 | 76 | 0 | 0.9 | 2.6 | 0.00 | 0.09 | 0.09 | 97 | 1013.7 |
| 20260905042019 | 76 | 30 | 0.9 | 2.6 | 0.00 | 0.09 | 0.09 | 97 | 1013.6 |
| 20260905041543 | 76 | 30 | 0.0 | 2.6 | 0.00 | 0.09 | 0.09 | 97 | 1013.7 |
| 20260905041019 | 76 | 30 | 0.9 | 2.6 | 0.00 | 0.09 | 0.09 | 97 | 1013.8 |
| 20260905040518 | 76 | 86 | 0.9 | 2.6 | 0.00 | 0.09 | 0.09 | 96 | 1013.8 |
| 20260905040047 | 76 | 86 | 0.0 | 2.6 | 0.00 | 0.09 | 0.09 | 96 | 1013.7 |
| 20260905035518 | 76 | 86 | 0.9 | 2.6 | 0.00 | 0.09 | 0.09 | 96 | 1013.7 |
| 20260905035018 | 76 | 0 | 0.0 | 1.7 | 0.00 | 0.09 | 0.09 | 96 | 1013.9 |
| 20260905034600 | 76 | 0 | 0.0 | 1.7 | 0.00 | 0.09 | 0.09 | 96 | 1013.9 |
| 20260905034019 | 76 | 0 | 0.0 | 1.7 | 0.00 | 0.09 | 0.09 | 96 | 1014.0 |
| 20260905033519 | 76 | 86 | 0.9 | 1.7 | 0.00 | 0.09 | 0.09 | 96 | 1014.0 |
| 20260905033100 | 76 | 86 | 0.0 | 0.9 | 0.00 | 0.09 | 0.09 | 96 | 1014.1 |
| 20260905032519 | 76 | 0 | 0.0 | 2.6 | 0.00 | 0.09 | 0.09 | 96 | 1014.1 |
| 20260905032019 | 76 | 0 | 0.0 | 2.6 | 0.00 | 0.09 | 0.09 | 96 | 1014.1 |
| 20260905031542 | 76 | 86 | 0.9 | 2.6 | 0.00 | 0.09 | 0.09 | 96 | 1013.9 |
| 20260905031020 | 76 | 86 | 0.0 | 1.7 | 0.00 | 0.09 | 0.09 | 96 | 1014.0 |
| 20260905030521 | 76 | 0 | 0.0 | 2.6 | 0.00 | 0.09 | 0.09 | 96 | 1014.0 |
| 20260905030040 | 76 | 0 | 0.0 | 2.6 | 0.00 | 0.09 | 0.09 | 96 | 1014.1 |
| 20260905025522 | 76 | 48 | 0.9 | 3.5 | 0.00 | 0.09 | 0.09 | 96 | 1014.1 |
| 20260905025022 | 77 | 90 | 0.9 | 3.5 | 0.00 | 0.09 | 0.09 | 96 | 1014.1 |
| 20260905024540 | 76 | 57 | 0.9 | 2.6 | 0.00 | 0.09 | 0.09 | 96 | 1014.2 |
| 20260905024022 | 77 | 63 | 0.0 | 2.6 | 0.00 | 0.09 | 0.09 | 95 | 1014.2 |
| 20260905023519 | 77 | 0 | 0.0 | 2.6 | 0.00 | 0.09 | 0.09 | 95 | 1014.1 |
| 20260905023119 | 77 | 30 | 0.0 | 1.7 | 0.00 | 0.09 | 0.09 | 95 | 1014.0 |
| 20260905022519 | 77 | 36 | 0.9 | 1.7 | 0.00 | 0.09 | 0.09 | 95 | 1014.0 |
| 20260905022018 | 77 | 0 | 0.0 | 0.0 | 0.00 | 0.09 | 0.09 | 95 | 1014.0 |
| 20260905021542 | 77 | 0 | 0.0 | 2.6 | 0.00 | 0.09 | 0.09 | 95 | 1014.0 |
| 20260905021018 | 77 | 0 | 0.0 | 2.6 | 0.00 | 0.09 | 0.09 | 95 | 1014.0 |
| 20260905020520 | 77 | 0 | 0.0 | 1.7 | 0.00 | 0.09 | 0.09 | 94 | 1013.9 |
| 20260905020040 | 77 | 0 | 0.0 | 2.6 | 0.00 | 0.09 | 0.09 | 94 | 1013.9 |
| 20260905015517 | 77 | 61 | 0.9 | 2.6 | 0.00 | 0.09 | 0.09 | 94 | 1013.8 |
| 20260905015024 | 77 | 31 | 0.9 | 3.5 | 0.00 | 0.09 | 0.09 | 94 | 1013.8 |
| 20260905014540 | 77 | 30 | 0.9 | 3.5 | 0.00 | 0.09 | 0.09 | 94 | 1013.8 |
| 20260905014019 | 78 | 0 | 0.9 | 3.5 | 0.00 | 0.09 | 0.09 | 93 | 1013.7 |
| 20260905013518 | 78 | 23 | 0.9 | 2.6 | 0.00 | 0.09 | 0.09 | 93 | 1013.7 |
| 20260905013042 | 78 | 0 | 0.0 | 2.6 | 0.00 | 0.09 | 0.09 | 93 | 1013.7 |
| 20260905012519 | 78 | 41 | 0.9 | 2.6 | 0.00 | 0.09 | 0.09 | 93 | 1013.7 |
| 20260905012020 | 78 | 0 | 0.9 | 2.6 | 0.00 | 0.09 | 0.09 | 92 | 1013.7 |